DUCHIFAT-3

Last updated on Wed Sep 17 2025 00:03:09 GMT+0000 (Coordinated Universal Time)

1 44854U 19089C 25259.50668232 .00084967 00000+0 11251-2 0 9992 2 44854 36.9378 82.0170 0006954 7.4409 352.6453 15.57095831318384
UTC large
Height (km)
Speed (km/s)
/
Latitude / Longitude
Inclination (degrees)
Orbital Period (minutes)
Azimuth
Elevation
Range (km)
Doppler Factor

Next 0 passes for location: London (51.5072 / 0.1276)

Sorry there are no passes over London.